• In Hungary
  • List of Countries
  • For 7 days
  • Water Temperature
  • Satellite Maps
  • Weather Map
  • News
  • Weather Widgets
  • user-avatar
    Login

    Hourly Weather Kireevka

    Today, 26 May, Saturday

    Time Temperature Precipitation Wind Pressure Humidity
    00:00 +19°C° 0.2 mm 5 mps 750 mmHg 90%
    01:00 +19°C° 0 mm 6 mps 750 mmHg 89%
    02:00 +17°C° 0 mm 7 mps 751 mmHg 88%
    03:00 +17°C° 0 mm 7 mps 752 mmHg 88%
    04:00 +15°C° 0.3 mm 8 mps 752 mmHg 85%
    05:00 +13°C° 0.3 mm 8 mps 753 mmHg 82%
    06:00 +12°C° 0.3 mm 9 mps 754 mmHg 79%
    07:00 +13°C° 0 mm 9 mps 754 mmHg 73%
    08:00 +13°C° 0 mm 9 mps 755 mmHg 67%
    09:00 +13°C° 0 mm 9 mps 756 mmHg 61%
    10:00 +15°C° 0 mm 9 mps 756 mmHg 57%
    11:00 +16°C° 0 mm 9 mps 757 mmHg 54%
    12:00 +17°C° 0 mm 9 mps 757 mmHg 51%
    13:00 +17°C° 0 mm 9 mps 758 mmHg 50%
    14:00 +17°C° 0 mm 9 mps 758 mmHg 49%
    15:00 +18°C° 0 mm 9 mps 758 mmHg 48%
    16:00 +17°C° 0 mm 8 mps 759 mmHg 51%
    17:00 +17°C° 0 mm 8 mps 759 mmHg 53%
    18:00 +16°C° 0 mm 7 mps 759 mmHg 55%
    19:00 +15°C° 0 mm 6 mps 760 mmHg 56%
    20:00 +14°C° 0 mm 6 mps 760 mmHg 57%
    21:00 +13°C° 0 mm 6 mps 760 mmHg 58%
    22:00 +11°C° 0 mm 6 mps 761 mmHg 58%
    23:00 +11°C° 0 mm 6 mps 761 mmHg 57%

    Tomorrow, 27 May, Sunday

    Time Temperature Precipitation Wind Pressure Humidity
    00:00 +10°C° 0 mm 6 mps 761 mmHg 57%
    01:00 +10°C° 0 mm 6 mps 761 mmHg 57%
    02:00 +9°C° 0 mm 6 mps 761 mmHg 58%
    03:00 +9°C° 0 mm 6 mps 762 mmHg 59%
    04:00 +9°C° 0 mm 6 mps 762 mmHg 61%
    05:00 +9°C° 0 mm 6 mps 762 mmHg 64%
    06:00 +8°C° 0 mm 6 mps 762 mmHg 66%
    07:00 +10°C° 0 mm 7 mps 762 mmHg 62%
    08:00 +11°C° 0 mm 7 mps 762 mmHg 58%
    09:00 +14°C° 0 mm 7 mps 762 mmHg 54%
    10:00 +15°C° 0 mm 7 mps 762 mmHg 52%
    11:00 +16°C° 0 mm 7 mps 761 mmHg 50%
    12:00 +17°C° 0 mm 7 mps 761 mmHg 48%
    13:00 +18°C° 0 mm 7 mps 761 mmHg 47%
    14:00 +18°C° 0 mm 7 mps 760 mmHg 47%
    15:00 +20°C° 0 mm 7 mps 760 mmHg 46%
    16:00 +19°C° 0 mm 6 mps 760 mmHg 49%
    17:00 +19°C° 0 mm 6 mps 759 mmHg 51%
    18:00 +19°C° 0 mm 5 mps 759 mmHg 54%
    19:00 +17°C° 0 mm 4 mps 759 mmHg 56%
    20:00 +14°C° 0 mm 4 mps 759 mmHg 58%
    21:00 +13°C° 0 mm 4 mps 759 mmHg 60%
    22:00 +12°C° 0 mm 4 mps 758 mmHg 59%
    23:00 +12°C° 0 mm 4 mps 758 mmHg 58%

    Day after tomorrow, 28 May, Monday

    Time Temperature Precipitation Wind Pressure Humidity
    00:00 +11°C° 0 mm 4 mps 758 mmHg 57%
    01:00 +11°C° 0 mm 4 mps 758 mmHg 56%
    02:00 +10°C° 0 mm 3 mps 758 mmHg 56%
    03:00 +10°C° 0 mm 3 mps 758 mmHg 56%
    04:00 +10°C° 0 mm 3 mps 758 mmHg 58%
    05:00 +10°C° 0 mm 3 mps 758 mmHg 61%
    06:00 +10°C° 0 mm 4 mps 758 mmHg 63%
    07:00 +12°C° 0 mm 4 mps 758 mmHg 58%
    08:00 +15°C° 0 mm 4 mps 758 mmHg 54%
    09:00 +18°C° 0 mm 4 mps 758 mmHg 50%
    10:00 +19°C° 0 mm 5 mps 758 mmHg 47%
    11:00 +20°C° 0 mm 5 mps 758 mmHg 44%
    12:00 +22°C° 0 mm 5 mps 758 mmHg 40%
    13:00 +22°C° 0 mm 5 mps 758 mmHg 40%
    14:00 +23°C° 0 mm 5 mps 758 mmHg 40%
    15:00 +23°C° 0 mm 5 mps 757 mmHg 40%
    16:00 +23°C° 0 mm 4 mps 757 mmHg 46%
    17:00 +23°C° 0 mm 4 mps 757 mmHg 51%
    18:00 +22°C° 0 mm 3 mps 757 mmHg 56%
    19:00 +21°C° 0 mm 4 mps 758 mmHg 62%
    20:00 +19°C° 0 mm 4 mps 758 mmHg 68%
    21:00 +17°C° 0 mm 4 mps 758 mmHg 74%
    22:00 +17°C° 0 mm 4 mps 758 mmHg 72%
    23:00 +15°C° 0 mm 5 mps 759 mmHg 69%

    29 May, Tuesday

    Time Temperature Precipitation Wind Pressure Humidity
    00:00 +15°C° 0 mm 6 mps 759 mmHg 67%
    01:00 +14°C° 0 mm 6 mps 759 mmHg 67%
    02:00 +13°C° 0 mm 6 mps 759 mmHg 67%
    03:00 +11°C° 0 mm 6 mps 760 mmHg 66%
    04:00 +11°C° 0 mm 6 mps 760 mmHg 67%
    05:00 +11°C° 0 mm 6 mps 760 mmHg 68%
    06:00 +10°C° 0 mm 6 mps 760 mmHg 68%
    07:00 +13°C° 0 mm 6 mps 760 mmHg 64%
    08:00 +14°C° 0 mm 6 mps 760 mmHg 60%
    09:00 +15°C° 0 mm 7 mps 761 mmHg 56%
    10:00 +16°C° 0 mm 7 mps 760 mmHg 53%
    11:00 +17°C° 0 mm 7 mps 760 mmHg 51%
    12:00 +18°C° 0 mm 7 mps 760 mmHg 48%
    13:00 +20°C° 0 mm 7 mps 760 mmHg 47%
    14:00 +20°C° 0 mm 7 mps 759 mmHg 46%
    15:00 +20°C° 0 mm 6 mps 759 mmHg 45%
    16:00 +20°C° 0 mm 6 mps 758 mmHg 47%
    17:00 +20°C° 0 mm 5 mps 758 mmHg 49%
    18:00 +19°C° 0 mm 5 mps 758 mmHg 51%
    19:00 +18°C° 0 mm 4 mps 758 mmHg 53%
    20:00 +15°C° 0 mm 4 mps 758 mmHg 55%
    21:00 +13°C° 0 mm 4 mps 758 mmHg 56%
    22:00 +13°C° 0 mm 4 mps 758 mmHg 56%
    23:00 +12°C° 0 mm 4 mps 757 mmHg 55%

    30 May, Wednesday

    Time Temperature Precipitation Wind Pressure Humidity
    00:00 +12°C° 0 mm 3 mps 757 mmHg 54%
    01:00 +11°C° 0 mm 3 mps 757 mmHg 54%
    02:00 +11°C° 0 mm 3 mps 757 mmHg 55%
    03:00 +10°C° 0 mm 3 mps 756 mmHg 55%
    04:00 +11°C° 0 mm 3 mps 756 mmHg 58%
    05:00 +11°C° 0 mm 3 mps 756 mmHg 60%
    06:00 +11°C° 0 mm 3 mps 756 mmHg 62%
    07:00 +13°C° 0 mm 4 mps 756 mmHg 56%
    08:00 +15°C° 0 mm 4 mps 756 mmHg 50%
    09:00 +19°C° 0 mm 4 mps 756 mmHg 45%
    10:00 +20°C° 0 mm 4 mps 756 mmHg 42%
    11:00 +21°C° 0 mm 4 mps 755 mmHg 40%
    12:00 +22°C° 0 mm 4 mps 755 mmHg 38%
    13:00 +23°C° 0 mm 4 mps 755 mmHg 38%
    14:00 +23°C° 0 mm 4 mps 754 mmHg 38%
    15:00 +25°C° 0 mm 4 mps 754 mmHg 38%
    16:00 +23°C° 0 mm 4 mps 753 mmHg 42%
    17:00 +24°C° 0 mm 3 mps 753 mmHg 46%
    18:00 +24°C° 0 mm 3 mps 753 mmHg 50%
    19:00 +21°C° 0 mm 3 mps 753 mmHg 52%
    20:00 +19°C° 0 mm 3 mps 753 mmHg 54%
    21:00 +17°C° 0 mm 3 mps 753 mmHg 56%
    22:00 +16°C° 0 mm 3 mps 752 mmHg 56%
    23:00 +16°C° 0 mm 3 mps 752 mmHg 56%

    31 May, Thursday

    Time Temperature Precipitation Wind Pressure Humidity
    00:00 +14°C° 0 mm 3 mps 752 mmHg 56%
    01:00 +14°C° 0 mm 3 mps 752 mmHg 57%
    02:00 +13°C° 0 mm 3 mps 752 mmHg 59%
    03:00 +13°C° 0 mm 3 mps 751 mmHg 61%
    04:00 +13°C° 0 mm 3 mps 751 mmHg 63%
    05:00 +15°C° 0 mm 2 mps 751 mmHg 66%
    06:00 +15°C° 0 mm 2 mps 751 mmHg 68%
    07:00 +17°C° 0 mm 3 mps 751 mmHg 63%
    08:00 +19°C° 0 mm 3 mps 751 mmHg 57%
    09:00 +22°C° 0 mm 3 mps 751 mmHg 51%
    10:00 +23°C° 0 mm 4 mps 751 mmHg 47%
    11:00 +25°C° 0 mm 4 mps 750 mmHg 42%
    12:00 +26°C° 0 mm 4 mps 750 mmHg 38%
    13:00 +27°C° 0 mm 3 mps 750 mmHg 37%
    14:00 +27°C° 0 mm 3 mps 750 mmHg 36%
    15:00 +28°C° 0 mm 3 mps 749 mmHg 35%
    16:00 +28°C° 0 mm 2 mps 749 mmHg 38%
    17:00 +27°C° 0 mm 2 mps 749 mmHg 41%
    18:00 +27°C° 0 mm 2 mps 749 mmHg 44%
    19:00 +25°C° 0 mm 1 mps 749 mmHg 46%
    20:00 +23°C° 0 mm 1 mps 749 mmHg 49%
    21:00 +21°C° 0 mm 1 mps 749 mmHg 52%
    22:00 +20°C° 0 mm 1 mps 748 mmHg 53%
    23:00 +20°C° 0 mm 1 mps 748 mmHg 55%
    Show more